{"data":{"norad_id":64811,"intl_designator":"2025-150X","name":"STARLINK-34669","alt_names":[],"object_type":"PAYLOAD","status":"ACTIVE","operator":null,"country":"US","launch_date":"2025-07-16","launch_site_code":"AFWTR","launch_vehicle":null,"mission":null,"orbit_class":"UNKNOWN","rcs_meters":null,"size_class":null,"mass_kg":null,"dimensions":null,"purposes":["comms"],"wikipedia_slug":null,"has_3d_model":false,"image_url":null,"decayed_at":null,"tle_current":{"epoch":"2026-09-20T14:01:37.915968Z","epoch_age_seconds":117014,"freshness":"FRESH","line1":"1 64811U 25150X   26263.58446662  .00003698  00000+0  31752-3 0  9999","line2":"2 64811  70.0022   2.9118 0003288 265.3398  94.7385 14.98337942 65716","mean_motion":14.98337942,"eccentricity":0.0003288,"inclination_deg":70.0022,"raan_deg":2.9118,"arg_perigee_deg":265.3398,"mean_anomaly_deg":94.7385,"bstar":0.00031752,"rev_number":6571,"period_min":96.106489706713,"perigee_km":569.74611572578,"apogee_km":574.31654642029,"semimajor_km":6950.168331073,"source":"CELESTRAK","updated_at":"2026-09-21T09:00:35.446973Z"}}}